Wind_Speed
14 14 13 13 13 13 13 12 12 12 12 11 11 11 11 11 11 10 10 9 9 9 9 9 9 9 10 11 11 12 13 13 12 13 13 14 15 15 15 15 13 12 12 13 13 14 16 17 18 17 16 16 16 16 16 16 18 18 18 19 19 17 13 10 7 2 4 6 1 3 3 7 11 17 24 24 23 25 21 19 20 18 15 13 13 11 12 11
14 14 13 13 12 12 12 12 11 11 11 10 10 10 10 10 10 10 9 9 8 8 7 7 8 8 9 10 10 11 11 12 12 12 13 13 13 14 15 14 12 11 12 13 14 15 16 17 17 16 16 16 16 17 17 17 18 18 18 19 18 15 12 10 7 1 6 8 5 2 3 5 8 11 21 26 25 25 22 19 21 19 16 14 13 11 12 12
14 14 13 12 12 12 11 11 11 10 10 10 9 10 10 10 10 9 9 8 8 7 6 6 6 7 8 8 9 9 9 10 10 11 12 12 12 13 13 12 11 12 12 13 13 15 16 17 16 16 16 16 17 17 18 18 17 17 18 19 16 13 12 10 8 1 5 7 7 0 3 4 7 9 16 22 21 21 20 19 19 16 15 14 12 10 12 13
13 13 12 11 11 11 11 10 10 10 9 9 9 9 9 9 9 8 8 8 7 6 6 6 5 6 6 6 6 7 7 7 8 9 10 10 11 11 11 11 11 12 12 12 12 14 15 16 16 16 16 16 17 17 17 17 16 17 18 17 13 12 13 11 9 3 3 5 8 2 4 4 8 10 14 16 16 19 17 14 13 10 10 10 10 11 13 14
11 12 11 11 10 10 10 9 9 9 8 8 8 8 9 9 8 8 7 7 6 6 5 5 5 5 5 4 4 5 5 4 5 8 8 9 9 10 10 9 10 11 11 11 11 12 14 15 15 15 15 15 16 16 16 17 16 17 16 16 13 13 13 11 9 5 3 3 5 2 2 6 9 10 13 13 13 15 12 7 7 7 5 4 7 10 12 11
10 10 10 10 10 9 9 9 8 8 7 7 7 8 8 8 8 7 6 6 5 5 5 4 4 4 3 3 3 4 3 2 3 6 6 7 7 8 8 8 9 10 10 10 11 11 12 14 14 13 14 14 15 14 14 15 16 16 15 15 13 13 12 10 7 6 4 3 2 3 2 7 9 11 14 11 11 11 7 5 6 6 4 3 6 6 7 7
9 9 9 9 9 9 8 8 7 7 7 6 7 7 7 7 7 6 6 5 4 4 3 3 3 3 2 2 2 2 2 2 3 4 4 5 6 6 7 7 8 9 9 10 10 10 9 11 12 12 12 12 13 12 12 13 14 13 13 12 10 12 12 10 8 7 7 5 2 3 3 9 8 11 14 10 12 12 8 8 8 8 6 6 6 4 3 4
7 8 8 8 7 8 8 7 7 7 6 6 6 6 7 6 6 6 5 5 3 3 2 2 3 2 2 2 2 1 1 2 3 3 3 3 3 4 6 7 9 9 9 10 9 8 7 8 9 10 10 10 11 10 9 11 12 11 10 9 9 12 13 12 11 9 7 6 6 5 5 8 7 9 12 10 13 13 9 8 9 9 8 7 6 4 4 6
6 7 7 7 7 7 7 7 6 6 6 6 6 6 6 6 6 5 4 4 3 2 1 1 2 2 2 3 3 2 1 1 2 3 3 2 1 2 4 7 9 10 10 9 9 7 7 9 8 9 10 9 10 9 8 11 11 9 9 9 9 11 11 12 10 7 6 8 8 5 3 6 7 8 10 9 11 11 9 8 8 7 7 6 5 5 7 8
5 6 6 6 6 6 6 6 6 6 6 6 6 6 5 5 5 4 4 3 3 2 1 1 1 2 3 4 3 2 2 2 2 3 3 2 1 2 4 6 8 10 10 10 10 9 9 11 7 7 10 9 9 8 7 10 10 8 7 8 8 9 9 10 8 6 6 7 7 4 3 6 8 9 9 9 11 11 10 11 9 8 7 6 6 8 10 9
5 6 6 6 6 6 6 6 6 6 5 5 5 6 5 5 4 4 4 3 2 1 1 2 3 3 4 5 3 2 2 3 3 3 2 2 3 4 6 7 10 11 12 13 13 10 9 11 8 5 8 9 8 7 6 9 10 6 5 5 6 8 7 7 7 7 7 5 3 3 5 8 9 9 9 10 12 12 13 14 12 11 8 7 8 10 11 11
5 6 7 6 6 6 6 6 6 6 6 6 5 5 5 5 4 4 3 3 1 1 2 4 4 5 6 6 4 3 2 3 3 3 1 3 4 6 8 10 13 15 15 16 15 11 8 9 9 6 7 9 8 6 5 7 8 5 5 6 7 6 4 5 6 8 7 4 4 6 8 10 10 10 10 12 13 14 15 16 15 12 9 9 10 11 12 12
5 5 6 7 7 7 6 6 6 6 6 6 6 6 5 5 4 4 3 2 1 1 3 5 6 7 7 6 4 3 2 3 3 3 2 4 5 7 11 13 16 17 17 16 14 11 8 8 9 6 6 8 7 6 5 5 6 3 4 6 6 2 2 6 7 8 7 6 7 9 11 11 10 10 10 11 14 16 16 16 15 11 9 10 11 12 12 12
7 6 5 6 7 7 7 7 7 7 7 6 6 6 5 5 4 4 3 2 1 1 4 6 7 8 8 6 6 5 3 3 4 5 5 6 6 8 12 14 16 16 15 13 12 8 7 8 8 5 5 7 6 6 6 5 5 4 4 4 3 2 2 6 7 8 8 8 9 10 14 14 11 10 10 9 13 16 16 14 12 9 9 11 12 12 12 11
8 7 6 5 5 5 6 7 8 8 8 7 7 6 5 5 5 4 3 2 1 2 6 8 8 8 7 7 8 7 5 4 4 5 5 7 8 8 11 13 14 15 12 11 11 7 7 8 6 5 7 8 7 8 8 6 4 4 3 2 2 2 3 6 6 7 9 9 10 11 13 15 14 12 11 10 11 14 16 14 11 8 8 11 13 12 11 10
8 8 7 6 5 5 5 6 7 9 9 8 7 7 6 5 5 4 3 2 2 3 6 8 9 8 7 7 8 7 6 6 5 5 5 7 8 8 10 11 13 15 12 10 11 8 7 7 7 7 8 9 10 11 10 8 5 3 3 3 1 1 3 5 4 4 6 7 10 12 14 15 16 15 12 11 11 12 15 15 14 13 11 13 14 13 11 11
7 7 7 7 6 5 5 5 6 8 8 8 8 7 7 6 5 4 3 3 3 4 5 7 9 8 6 7 8 7 7 7 6 5 6 7 7 7 9 11 12 13 13 11 11 10 9 9 9 9 9 9 9 11 10 8 5 2 2 2 1 1 2 3 2 2 2 5 7 11 16 17 16 16 14 12 11 10 11 13 14 15 13 14 15 15 13 13
6 6 7 7 7 6 6 6 6 7 8 7 7 7 7 7 7 6 5 4 4 4 4 6 8 7 6 7 7 7 7 6 5 5 6 6 5 5 6 9 11 11 12 13 12 12 11 11 11 10 10 9 8 8 8 7 5 2 2 2 1 1 0 0 2 4 5 7 9 9 14 16 14 16 16 14 14 11 9 10 12 15 15 14 17 17 15 14
5 5 6 6 7 6 6 6 7 8 8 8 6 6 7 8 8 8 7 6 6 6 5 6 8 7 7 8 7 7 8 7 5 5 6 6 5 5 5 7 8 10 11 12 11 12 13 12 12 11 8 6 5 6 7 7 7 5 3 4 3 3 3 4 6 9 8 10 11 11 13 14 13 15 17 16 15 12 10 10 13 16 17 17 18 19 18 16
4 5 5 6 6 6 6 6 7 8 8 8 6 6 6 6 7 8 8 9 8 8 7 6 7 7 7 7 6 5 5 5 5 6 6 5 6 7 7 8 9 9 10 11 10 11 12 12 11 9 5 3 3 4 5 6 7 6 4 4 5 5 5 6 8 10 10 11 12 12 11 13 15 15 16 16 14 13 11 11 13 15 17 19 20 20 19 18
5 5 5 5 6 6 6 6 6 7 7 7 5 6 6 6 7 7 7 8 9 9 8 7 7 7 6 6 4 1 1 2 3 5 6 5 5 4 5 7 9 8 7 8 9 10 10 10 9 6 4 3 3 3 3 4 5 5 4 4 5 6 7 7 8 9 10 12 12 12 11 11 14 12 13 16 15 14 13 11 11 12 13 16 20 22 21 19
6 6 6 6 6 7 6 5 5 6 6 5 5 5 5 7 7 6 4 4 7 8 8 7 7 7 5 3 2 1 1 2 2 4 5 5 4 1 1 3 6 6 5 6 6 7 9 9 5 2 2 2 3 3 3 4 4 4 4 4 4 6 8 8 8 9 10 11 12 13 13 11 12 10 10 15 17 15 14 13 12 12 12 13 15 19 22 21
6 6 6 6 7 7 6 5 5 6 5 4 4 4 5 7 7 5 5 1 3 5 8 8 7 7 5 3 2 1 1 2 2 3 3 4 2 1 3 3 3 4 4 4 3 5 7 5 2 1 2 3 4 5 5 5 5 5 5 5 6 7 9 9 9 10 11 10 11 14 15 14 13 11 10 13 17 18 17 16 15 13 13 13 13 16 20 21
7 7 6 6 6 6 6 6 6 6 5 4 3 3 3 5 7 7 6 4 2 3 8 10 8 7 5 4 2 1 1 2 2 3 4 3 0 2 3 4 3 3 2 3 3 6 8 5 4 6 6 6 6 6 7 7 7 8 7 8 9 9 10 11 12 13 12 11 11 14 16 17 16 14 12 12 14 16 16 17 17 15 15 16 16 16 20 22
7 7 6 6 5 5 5 5 5 5 5 4 2 2 2 4 6 6 4 4 4 5 7 8 8 7 5 3 3 3 4 2 2 3 4 2 1 2 3 3 3 3 3 4 5 7 8 7 8 9 8 9 9 8 8 8 9 9 9 9 9 9 9 10 12 13 12 11 10 10 10 12 15 15 13 13 13 12 12 13 15 16 17 19 20 19 20 22
7 7 7 6 5 4 4 4 4 4 4 3 2 2 2 3 4 4 3 3 5 7 6 6 6 5 4 1 4 5 4 2 2 6 6 3 3 3 4 3 2 3 4 6 8 9 10 10 8 8 9 10 9 8 8 8 9 10 10 9 9 8 7 7 9 9 8 8 7 7 7 7 13 15 13 14 14 13 13 13 15 16 19 21 22 22 21 22
6 7 7 7 6 5 4 3 3 2 3 2 1 2 1 2 4 2 2 3 4 4 4 4 3 2 2 0 2 3 2 2 1 7 7 4 4 4 4 3 3 4 6 8 11 11 11 10 7 7 9 11 10 9 8 7 8 9 9 9 9 8 6 5 6 5 6 7 6 7 9 9 12 15 14 15 17 17 17 16 15 15 17 21 24 25 26 24
6 6 6 6 6 6 5 4 3 2 2 1 0 0 1 3 4 2 2 2 2 2 3 3 2 2 1 1 1 1 1 3 2 3 6 6 6 5 5 4 5 6 7 10 12 12 12 12 9 7 9 9 8 7 5 5 6 8 8 9 10 10 9 8 6 6 6 6 7 8 9 7 8 11 12 14 15 15 13 11 9 10 12 17 22 28 30 27
5 5 5 6 6 6 5 5 4 3 2 1 1 1 2 3 3 2 2 2 1 1 1 2 2 0 1 2 2 1 1 3 2 0 3 6 8 7 7 7 7 8 9 12 13 12 13 14 13 12 11 8 4 3 3 3 5 6 7 9 11 11 11 9 7 7 6 6 7 9 9 7 5 10 11 9 8 9 9 6 5 7 11 13 18 23 26 25
6 5 5 5 5 6 5 5 5 3 2 2 2 2 2 2 2 2 2 1 2 3 2 1 1 1 2 2 3 2 3 3 1 3 4 6 9 9 10 11 11 12 13 14 14 12 10 13 15 14 12 8 5 4 4 4 7 9 8 9 11 11 11 9 7 7 4 4 8 10 11 9 4 7 6 3 6 9 9 7 6 10 12 12 14 16 18 22
6 5 4 4 4 5 5 5 5 4 3 3 3 3 3 2 1 2 1 0 2 4 3 4 3 3 3 2 3 4 5 5 5 6 8 9 10 11 12 12 11 12 13 12 10 9 8 9 12 14 12 10 8 8 8 8 10 12 12 11 10 8 7 6 5 6 3 3 7 9 9 9 6 4 4 4 8 8 8 9 10 13 13 10 11 11 12 17
7 6 5 5 4 4 4 5 5 5 4 5 5 5 3 2 1 1 1 1 1 2 2 3 2 2 4 3 3 3 4 5 5 7 10 12 13 14 15 14 12 10 10 9 8 10 12 9 8 10 12 12 11 11 11 11 13 14 15 13 8 2 1 2 3 3 3 4 6 6 6 7 9 9 5 5 7 8 9 10 11 14 14 11 10 10 8 9
7 7 6 5 4 4 4 4 4 4 5 6 6 5 3 2 2 2 2 1 1 1 1 1 1 4 5 4 3 3 4 5 5 7 10 12 14 16 16 17 18 17 14 13 13 14 14 10 7 7 11 13 14 15 14 14 14 14 16 15 8 2 3 2 3 1 3 5 5 7 5 5 10 9 5 5 7 9 9 8 11 15 16 15 13 10 7 5
8 7 7 6 5 4 4 4 4 4 5 6 6 5 4 3 3 3 2 1 2 2 3 3 4 6 6 4 3 3 4 4 5 6 8 10 12 14 15 16 17 18 18 17 15 12 10 9 7 5 6 8 11 13 13 13 13 13 14 14 13 9 4 4 3 2 3 3 4 7 5 3 5 4 4 6 6 6 5 7 13 17 18 19 18 12 6 4
9 8 8 7 6 5 5 5 4 4 5 5 5 5 6 5 3 3 3 3 4 4 5 5 6 6 5 4 4 4 3 3 5 6 6 7 9 10 11 12 11 12 13 13 11 9 9 10 9 7 7 7 9 10 10 12 13 13 13 14 15 15 11 7 5 4 4 1 3 6 5 4 5 5 4 3 3 3 4 9 12 15 18 20 19 15 8 5
9 9 9 9 8 7 6 6 6 6 6 5 5 5 6 5 3 3 4 4 4 6 7 7 6 5 3 2 4 4 5 6 7 6 5 6 6 5 5 6 5 6 7 8 8 7 7 9 8 8 9 10 12 12 10 12 12 10 12 14 13 12 11 8 4 3 3 1 3 7 6 5 6 5 4 4 4 5 7 11 12 14 16 17 18 16 12 11
10 10 10 10 10 10 8 7 7 8 8 7 7 6 5 5 4 5 5 5 5 7 8 7 5 5 5 4 5 8 10 10 8 7 6 5 4 3 2 3 3 4 5 6 8 8 10 13 13 13 13 12 13 14 12 12 12 10 10 13 12 9 10 8 3 1 1 1 4 7 8 9 9 6 7 9 8 9 11 11 10 11 12 13 14 14 15 16
10 12 12 11 12 12 11 11 10 10 11 10 9 7 7 6 6 7 6 6 6 7 7 7 6 6 7 8 10 13 14 12 11 10 8 5 4 4 4 3 3 5 6 6 6 7 9 12 13 13 14 12 12 13 12 10 12 12 10 11 11 8 7 8 5 1 1 2 3 5 7 10 12 10 10 12 12 12 10 8 6 7 8 8 8 8 11 14
11 12 12 12 12 12 13 14 14 14 14 12 10 9 9 9 8 7 7 7 7 8 8 8 8 7 8 11 13 14 15 14 13 12 8 4 4 5 6 7 5 5 6 6 6 7 7 8 7 9 12 13 13 13 12 10 11 12 11 11 12 10 8 8 7 4 3 3 1 2 3 6 11 12 12 13 13 12 10 8 7 7 5 5 5 4 4 6
11 12 13 13 12 11 12 14 15 15 15 13 12 10 11 10 8 7 8 8 8 9 9 9 10 10 11 12 13 14 14 14 13 12 8 5 7 8 9 11 11 9 8 7 7 7 7 7 8 9 11 11 11 13 13 12 11 11 11 10 10 10 8 7 8 6 4 3 3 2 2 3 6 9 13 15 15 13 12 10 9 8 7 7 7 7 6 5
12 13 13 13 12 11 12 12 13 14 14 14 14 12 12 12 11 9 9 9 9 10 10 10 11 12 12 13 14 14 13 13 13 12 11 10 10 10 9 11 13 13 11 11 10 8 7 8 9 11 12 11 10 10 11 11 11 10 11 11 10 10 7 4 5 7 7 5 3 3 2 3 6 12 17 17 15 14 14 12 11 10 9 9 9 8 8 8
12 12 13 13 12 12 12 12 12 12 13 13 14 14 13 13 13 13 12 12 11 12 12 12 12 12 13 13 13 13 13 13 13 12 11 11 11 11 12 13 14 16 17 17 16 13 10 10 11 13 14 15 13 12 11 11 12 11 12 13 12 11 11 7 5 6 8 7 5 3 2 4 10 16 18 17 16 16 15 14 13 13 12 12 11 11 10 10
11 12 13 13 13 13 13 13 12 12 12 13 14 15 15 15 15 15 15 15 14 13 12 12 12 12 12 13 13 14 14 14 14 14 13 13 14 15 17 17 17 17 17 16 15 13 10 8 9 10 13 16 16 15 14 13 13 14 14 15 13 12 13 12 11 11 10 10 8 4 1 7 15 18 18 18 17 16 14 15 15 15 15 15 14 14 13 13
11 12 14 14 13 13 14 15 14 13 12 13 14 15 16 16 17 17 17 17 16 15 14 14 14 14 15 15 15 16 17 14 13 13 13 14 15 15 15 16 16 16 15 13 12 12 11 9 8 7 6 9 12 12 12 12 12 12 12 10 10 10 10 12 13 13 11 11 12 8 3 9 18 20 21 19 16 14 12 12 13 14 15 14 14 15 15 15
11 12 13 14 13 13 14 16 16 15 15 15 15 16 16 16 17 18 18 19 19 18 18 17 17 17 16 16 16 17 19 17 14 13 13 14 15 16 16 16 15 15 15 14 14 14 14 13 12 9 5 5 7 7 9 10 10 11 11 10 10 10 10 10 10 11 9 9 15 13 7 9 19 24 23 20 16 13 11 11 13 13 14 15 15 16 17 17
11 11 11 12 12 13 15 16 17 17 17 17 17 17 18 17 17 18 19 19 19 19 19 18 17 17 16 16 17 18 18 18 16 15 14 15 15 16 17 16 15 15 15 14 14 14 15 16 16 16 15 14 14 13 13 14 13 14 15 15 14 13 13 12 11 12 11 10 15 18 10 9 19 25 24 20 15 14 15 16 17 17 17 18 18 19 19 20
12 12 12 12 11 12 14 16 17 17 17 17 17 17 18 18 18 18 18 18 18 18 18 17 16 16 16 17 17 17 17 17 17 17 16 16 16 16 17 16 15 14 13 13 13 13 15 17 18 19 19 18 17 16 16 17 18 18 17 16 16 15 16 17 17 17 17 14 16 19 15 14 19 21 21 20 20 21 20 20 20 21 20 20 21 21 22 22
14 14 14 14 13 13 13 14 15 16 17 17 18 18 19 20 20 20 19 18 18 18 16 15 15 15 16 16 16 16 16 16 17 17 17 17 16 16 16 16 15 15 14 13 13 13 15 17 18 19 20 19 18 17 16 17 18 19 19 19 19 19 19 20 21 21 19 19 21 23 20 21 22 21 23 27 27 26 24 23 22 21 21 21 21 22 23 23
14 14 15 15 16 17 17 17 17 17 18 18 19 20 20 20 20 20 20 18 17 17 16 15 14 14 14 14 14 14 14 14 15 15 16 16 16 17 17 18 18 18 18 17 16 16 16 17 16 17 19 20 18 17 17 18 19 21 22 22 22 22 22 21 21 20 20 23 26 25 23 25 25 23 24 27 28 28 27 25 23 22 21 21 21 21 21 22
12 13 14 15 16 17 18 19 18 18 18 17 18 18 19 18 17 17 17 18 17 17 17 16 15 15 14 14 14 14 13 13 14 15 16 16 16 17 18 19 20 22 23 23 21 20 19 18 17 18 22 25 22 19 19 18 19 22 23 23 22 24 25 25 25 24 24 27 28 25 27 30 28 24 25 26 26 26 26 24 24 23 22 22 22 22 21 21
11 12 13 14 14 15 16 17 17 17 17 16 16 16 16 15 15 15 15 16 17 17 17 17 17 16 15 15 15 15 14 14 14 15 17 17 18 18 18 19 21 24 25 24 22 21 20 21 21 20 23 27 24 22 23 22 24 29 30 26 23 24 26 28 29 28 28 28 28 28 31 33 28 24 25 25 24 23 22 22 23 22 22 21 21 21 21 21
11 11 12 12 13 14 15 15 15 15 16 16 15 14 14 13 14 14 13 14 15 16 16 17 17 17 17 16 16 16 16 16 16 17 19 19 19 20 21 22 23 23 23 22 22 22 21 22 22 18 19 24 22 19 21 21 20 26 32 31 29 29 30 30 30 30 28 28 29 31 32 30 26 24 23 22 22 22 22 22 22 22 21 20 20 20 21 22
Wind_Direction
285 286 287 288 291 295 299 303 307 310 310 311 313 315 315 314 312 309 304 297 291 289 290 287 281 275 269 263 259 257 255 254 251 250 250 249 250 250 249 248 245 243 238 231 226 226 229 229 225 222 223 224 224 222 219 218 219 222 224 230 234 235 242 231 192 170 8 25 15 205 186 198 200 206 212 216 217 218 221 221 217 214 214 214 216 212 205 211
281 281 283 286 288 293 298 302 307 310 309 312 316 318 319 317 314 310 306 300 296 292 290 286 280 273 266 260 257 256 256 255 253 250 251 251 250 249 247 244 239 233 228 220 217 218 222 225 221 217 218 219 220 218 216 215 218 222 226 233 235 236 241 219 180 89 8 22 27 139 149 192 197 200 210 215 216 216 219 219 214 211 213 220 225 214 200 206
278 275 276 282 285 289 296 300 307 311 310 314 319 321 322 320 319 313 307 302 299 298 294 290 282 274 267 262 259 258 256 254 252 249 248 249 247 249 249 245 235 226 223 218 215 214 216 221 218 214 215 216 217 216 214 216 219 223 229 235 236 238 239 211 181 207 347 10 17 19 192 217 213 205 205 208 210 209 212 214 214 218 226 229 228 214 199 195
275 268 269 276 281 285 293 299 306 311 312 317 322 324 324 324 323 319 312 306 304 304 299 294 288 282 275 268 262 256 251 250 251 248 246 245 245 248 248 242 233 225 220 213 210 211 213 218 215 213 212 213 215 215 216 218 222 226 231 236 237 241 237 206 191 230 302 345 1 331 214 223 210 201 197 199 203 202 203 211 222 235 239 233 227 213 196 188
270 262 262 269 275 280 288 295 304 312 314 317 324 328 327 328 328 326 322 316 311 305 298 298 296 289 283 272 259 250 245 250 255 248 246 244 241 244 243 236 229 224 217 206 203 209 212 215 214 211 210 211 214 215 219 222 228 233 235 239 238 246 238 200 199 245 261 315 3 26 238 214 199 194 194 200 206 201 201 213 230 237 235 235 225 209 195 187
265 255 255 262 269 275 282 291 302 311 314 316 324 329 330 331 331 332 332 328 318 303 296 296 292 287 284 268 246 243 228 228 261 255 252 246 236 235 232 228 224 217 210 200 196 205 211 214 212 209 209 211 214 216 221 225 234 239 241 244 244 252 241 194 198 240 238 275 61 70 287 221 204 195 193 202 208 208 214 203 214 229 225 220 212 207 200 192
258 249 250 257 266 271 278 288 298 310 314 315 321 327 330 332 332 336 339 336 324 307 297 281 276 275 272 252 231 228 215 224 274 276 260 247 233 219 214 213 207 201 199 190 187 198 208 209 206 209 210 210 215 217 220 223 233 242 242 242 246 254 242 209 216 227 222 242 175 126 198 214 215 205 204 206 199 209 224 198 197 217 221 221 215 213 210 193
252 246 249 256 265 271 275 283 293 307 315 314 315 321 327 330 332 337 340 339 335 323 302 263 260 249 233 220 189 162 197 248 295 298 278 255 232 202 200 194 182 183 186 176 174 184 194 195 197 207 207 210 213 209 214 216 223 238 238 238 250 252 241 232 232 219 216 229 204 170 181 216 236 230 227 218 204 215 226 209 209 224 234 234 226 230 228 208
248 245 250 258 265 270 273 280 289 303 314 314 311 314 321 328 331 333 337 341 350 0 1 252 236 210 201 180 147 121 96 352 331 319 306 294 247 185 189 178 168 171 169 158 158 163 176 180 186 202 200 201 201 195 205 209 214 231 240 252 259 245 240 244 232 208 214 208 195 188 187 232 251 253 242 222 219 228 228 225 227 236 246 239 228 233 234 222
250 247 253 260 267 271 275 281 288 298 309 313 309 307 312 322 327 328 330 338 357 21 68 93 162 173 181 168 146 107 61 33 9 336 309 289 209 169 162 161 159 157 150 145 151 155 171 180 182 195 192 189 189 190 197 202 211 231 251 265 262 243 242 250 230 200 202 187 178 191 224 252 258 260 252 238 241 241 236 242 243 243 237 222 221 226 226 217
263 257 259 265 272 277 281 284 289 292 298 304 305 302 302 309 320 325 323 326 347 9 67 98 127 153 163 152 120 70 54 40 30 359 291 230 194 178 161 154 149 146 148 150 154 158 172 185 186 180 184 186 186 190 192 203 216 240 274 281 281 268 255 248 223 188 185 176 175 224 249 258 261 263 259 251 248 245 247 251 251 245 225 207 213 222 221 208
291 272 266 269 276 281 286 288 288 287 288 295 301 302 299 300 308 315 319 319 329 4 69 97 119 138 144 128 78 47 57 56 46 20 257 188 180 179 167 158 154 153 156 155 159 168 177 187 188 183 187 187 184 187 194 214 224 247 295 299 304 298 252 222 197 175 181 195 217 243 252 252 259 269 267 255 246 245 249 251 251 244 224 210 213 220 219 208
341 306 284 275 275 277 284 286 286 284 283 289 296 302 302 299 302 308 315 324 327 44 88 99 115 126 128 110 68 58 88 92 82 70 113 145 163 176 169 164 163 159 156 157 167 179 188 193 193 196 197 192 192 192 198 220 226 248 308 308 308 313 183 191 187 181 190 214 233 248 256 255 270 284 279 262 249 245 246 247 245 236 223 216 213 218 218 213
7 353 327 298 284 277 278 280 281 281 281 284 288 296 302 302 301 302 311 318 308 129 122 117 122 127 123 108 92 94 111 120 118 113 117 131 156 175 171 167 164 159 155 165 178 190 204 207 206 209 211 213 220 217 216 231 240 265 304 305 289 275 192 182 188 196 202 225 245 257 265 266 275 290 288 272 252 245 245 245 239 226 219 216 211 215 219 221
8 4 358 342 317 295 282 277 277 277 278 281 282 288 296 301 299 297 305 292 249 157 146 138 137 138 128 115 108 107 120 138 135 133 136 142 157 173 176 172 167 163 164 178 189 204 224 220 222 227 229 242 254 248 243 245 260 294 306 299 257 228 188 174 187 208 217 238 252 260 271 270 271 283 285 278 261 244 242 246 245 235 221 214 213 215 222 229
2 1 359 353 345 332 305 285 278 277 277 277 277 281 287 293 294 285 279 265 235 183 167 156 152 149 134 127 122 117 130 144 144 144 150 158 166 173 178 182 178 174 179 194 203 219 235 226 235 248 248 259 271 271 264 255 268 309 305 304 320 179 168 167 179 204 222 251 256 256 263 264 271 280 278 278 275 253 246 250 253 254 242 226 224 224 228 235
353 355 355 353 350 344 329 309 293 288 287 284 279 278 279 280 281 275 265 252 239 213 190 174 162 149 135 139 135 124 129 142 150 153 161 173 179 177 182 190 193 191 194 206 215 226 238 240 254 267 266 271 279 278 269 258 262 288 298 308 10 55 139 155 176 204 233 288 285 270 262 258 267 275 274 276 278 264 256 259 262 265 260 241 231 230 234 241
343 347 353 356 355 348 338 328 316 311 309 304 296 287 277 270 266 262 257 245 237 222 205 189 170 151 140 148 141 131 127 127 142 155 163 177 184 178 186 196 205 210 211 218 225 231 242 251 263 270 271 278 286 276 259 247 246 263 310 315 335 23 2 303 311 291 281 299 310 295 271 258 257 267 272 273 269 264 264 275 279 275 267 250 236 236 238 246
335 341 350 356 358 355 348 339 333 329 325 325 324 307 287 273 265 259 252 241 226 212 203 193 179 164 155 155 151 147 134 118 130 151 157 172 184 189 200 208 216 223 224 229 231 234 242 250 259 265 272 280 283 274 256 241 248 267 304 313 304 313 313 316 319 312 302 301 310 310 283 261 253 258 264 268 262 255 260 274 282 280 271 254 240 239 242 251
340 343 348 352 357 357 355 350 344 340 336 337 335 319 305 289 277 266 256 245 231 218 209 203 191 172 163 166 166 157 140 123 138 149 153 171 190 201 215 221 224 229 232 232 230 236 242 247 255 263 277 274 246 255 252 239 246 262 287 312 312 312 315 320 323 321 314 308 312 316 294 264 256 253 252 258 252 243 254 271 282 289 279 257 245 244 246 253
359 356 355 356 357 358 359 358 356 349 343 345 338 320 314 310 303 288 270 250 234 221 212 212 198 172 158 165 167 148 118 120 142 143 143 159 181 206 232 233 230 230 232 228 227 236 245 250 260 269 278 259 220 221 235 238 242 252 271 300 314 315 313 318 325 327 321 316 314 316 309 278 265 258 242 242 241 241 254 265 276 293 289 264 250 246 248 252
5 6 7 9 10 11 12 13 10 0 354 355 349 337 328 330 329 320 311 255 225 219 210 203 186 174 168 169 201 268 131 119 141 146 135 137 149 187 303 259 237 228 222 221 228 243 249 254 261 259 268 253 227 234 249 258 253 248 264 289 305 311 311 313 319 321 318 315 310 308 311 302 290 285 251 234 236 245 256 257 260 275 281 271 257 249 248 250
353 358 5 13 19 24 29 34 29 19 18 19 14 7 349 349 355 355 2 34 203 210 197 185 171 179 193 204 242 289 136 148 169 185 173 144 134 314 342 336 271 232 224 225 242 257 244 233 209 207 309 287 253 260 267 267 261 253 263 285 296 303 309 310 309 313 312 306 301 298 298 295 292 293 277 249 242 248 254 252 252 259 264 266 262 251 246 248
336 340 349 1 13 24 33 39 38 32 31 27 16 11 5 11 13 10 25 63 91 151 184 185 182 189 197 212 239 11 299 239 181 200 211 176 26 298 310 334 285 232 228 237 265 259 233 230 273 288 307 299 278 274 268 265 266 263 266 274 285 296 305 305 304 306 305 297 293 291 291 287 281 279 277 266 257 257 257 252 252 256 259 262 259 250 247 250
323 326 332 342 353 7 21 32 37 39 38 28 13 4 8 13 7 7 31 70 89 112 152 165 169 182 188 216 245 268 289 271 186 188 190 183 300 271 271 305 269 238 250 262 276 265 247 263 287 292 296 295 295 286 268 268 273 272 272 274 288 300 301 299 300 303 300 295 286 279 282 287 283 279 274 270 265 262 259 253 253 257 260 261 260 257 256 257
316 317 320 327 331 338 357 16 24 30 36 36 30 16 11 3 1 10 38 81 110 114 122 134 149 174 180 233 257 256 286 320 199 192 178 197 260 253 253 265 263 266 272 277 279 272 269 280 283 284 290 291 295 290 274 273 274 273 274 278 291 299 297 297 298 297 291 286 281 261 250 265 277 277 274 273 269 264 261 259 258 261 262 261 261 261 259 260
315 314 315 317 317 317 329 347 349 0 28 41 48 40 23 356 358 14 55 82 121 129 132 149 157 154 145 104 275 240 271 8 236 206 198 222 255 247 241 253 295 297 288 287 282 272 269 274 274 280 288 289 289 289 278 267 268 274 278 278 283 286 287 296 299 294 280 272 270 258 251 261 270 269 272 278 279 278 275 272 270 266 263 263 261 259 254 254
320 316 313 311 309 309 310 309 300 316 4 17 9 44 5 356 357 16 78 79 136 156 163 183 175 118 134 258 294 156 24 13 10 216 217 233 246 247 248 264 298 297 285 282 282 281 270 262 258 264 283 295 292 284 276 268 269 273 276 273 276 279 277 282 297 296 275 260 263 261 254 261 271 273 283 285 283 288 286 279 277 266 262 262 258 255 252 251
326 319 313 307 306 306 304 299 287 288 305 302 297 300 342 353 342 358 66 77 105 128 187 215 198 178 294 279 282 260 347 9 27 246 240 240 243 254 264 268 278 282 280 280 286 295 283 269 260 258 271 287 276 258 283 294 279 269 265 267 273 277 276 282 292 277 252 236 252 263 252 242 272 290 292 290 295 309 306 291 275 277 285 275 260 256 254 250
329 324 318 310 305 302 298 293 283 274 266 278 291 297 326 336 318 356 75 92 50 65 87 151 161 21 338 298 291 275 294 331 291 257 261 250 245 255 268 273 275 280 282 284 292 300 287 270 261 254 258 267 252 242 256 266 264 257 257 267 275 276 276 280 271 248 237 240 248 258 251 234 260 293 277 278 319 318 312 301 291 301 309 288 263 260 256 249
325 321 322 320 312 303 296 291 285 278 266 266 274 286 306 310 317 35 94 164 53 75 92 108 111 46 14 307 275 264 281 296 285 274 275 270 260 261 270 276 280 285 288 293 303 310 301 279 263 250 246 252 254 251 253 255 252 251 255 262 268 272 270 266 245 215 194 253 253 253 246 223 220 251 245 287 307 309 311 308 306 313 320 299 270 274 267 245
317 314 316 319 318 312 302 294 285 276 265 258 260 273 286 256 220 109 116 185 96 93 77 92 109 21 7 330 280 258 270 277 281 280 277 274 270 270 274 277 280 282 287 298 306 309 311 306 280 255 241 240 248 254 258 255 250 249 250 250 252 280 339 269 244 203 215 248 243 220 200 210 235 250 263 290 294 306 316 314 315 316 321 315 285 277 281 241
309 305 304 307 310 313 311 305 294 274 257 249 250 259 262 224 204 174 146 157 151 136 352 15 325 319 334 326 281 260 270 272 274 272 269 270 271 272 275 276 275 271 271 282 291 301 308 306 293 265 244 238 244 253 259 256 250 246 244 242 236 148 73 282 258 292 267 256 215 193 193 233 246 252 287 314 312 318 317 315 319 316 315 319 305 286 288 257
301 298 295 296 296 301 308 309 305 286 256 241 240 245 237 216 204 203 214 248 236 273 293 288 305 319 323 308 263 255 264 259 264 275 281 280 274 273 277 279 278 272 268 274 283 290 290 286 290 269 240 239 242 247 256 258 251 244 241 242 239 227 214 231 224 206 237 231 171 184 205 242 233 250 312 324 322 317 307 310 320 321 318 317 312 302 296 274
292 293 290 288 283 281 291 303 305 293 270 244 234 235 231 227 224 231 255 267 265 285 291 292 306 311 309 285 256 259 269 266 278 292 308 304 285 278 280 284 287 280 272 270 273 273 265 270 279 262 247 258 261 253 247 247 246 242 239 237 240 241 238 233 233 222 213 180 158 192 213 237 246 273 293 295 282 258 289 311 315 318 317 313 307 301 301 304
283 285 284 281 274 267 270 284 291 288 278 257 246 239 231 232 234 234 248 259 275 294 296 298 301 292 288 266 250 277 304 307 303 295 308 320 302 285 281 285 290 288 281 271 265 259 252 260 270 270 268 270 271 266 248 239 242 235 226 226 228 235 240 237 239 231 203 195 224 217 216 216 227 254 236 210 221 245 282 300 302 307 312 314 307 294 290 303
275 274 271 269 266 261 257 263 274 281 279 268 254 238 221 220 221 225 240 256 278 295 299 304 301 285 294 295 287 304 312 314 314 300 302 323 312 275 272 288 282 290 299 291 276 261 253 259 264 271 276 270 263 258 242 234 238 231 222 224 224 227 235 228 203 89 109 212 242 226 212 195 183 183 196 203 224 255 274 285 293 303 307 311 310 295 285 294
270 270 269 267 265 262 256 255 261 272 275 268 253 233 212 208 217 229 241 252 268 285 296 307 307 293 296 297 298 307 311 313 317 311 305 304 284 259 262 278 278 279 290 298 289 268 259 264 266 265 264 259 248 241 234 227 231 237 239 235 230 230 224 207 188 136 171 227 269 240 221 208 201 209 219 220 231 247 252 251 264 287 291 291 300 296 287 289
263 266 270 269 269 267 261 256 257 262 266 264 252 230 212 208 217 236 247 254 267 281 289 296 297 292 293 298 302 305 308 310 313 314 312 290 262 264 268 278 282 273 278 292 298 288 270 261 263 262 253 247 239 234 237 239 235 243 247 236 230 233 222 203 193 178 176 197 249 269 259 222 217 229 232 220 214 212 208 210 230 245 246 236 228 228 244 258
257 260 265 267 270 270 263 260 258 257 259 257 248 231 215 213 220 234 247 255 265 277 285 289 290 291 292 297 300 300 303 304 302 304 309 293 275 273 270 274 277 271 269 278 290 297 284 258 254 259 252 245 238 236 243 245 233 229 231 223 216 215 210 208 215 211 193 179 165 184 274 251 222 215 203 195 192 193 200 212 223 226 225 221 213 210 219 230
260 259 261 263 266 264 260 261 261 256 254 251 245 237 229 225 228 234 244 256 265 273 281 284 285 288 290 293 295 295 295 293 291 292 294 288 278 270 266 271 276 278 277 279 284 289 286 273 264 258 254 254 252 248 244 237 227 224 228 228 224 223 218 208 220 218 207 206 185 168 224 240 194 181 182 186 192 199 208 214 216 219 224 230 233 237 245 249
267 262 260 260 259 256 257 264 266 261 256 251 244 242 242 243 244 244 247 257 268 274 277 279 280 281 283 285 286 286 284 282 283 281 278 277 273 269 273 278 280 282 284 285 288 289 284 277 270 261 258 261 266 265 254 246 249 254 256 254 251 246 237 220 220 227 221 227 219 190 230 210 180 180 185 191 198 203 209 213 215 219 222 225 232 235 240 244
269 262 260 259 255 253 257 263 266 264 261 254 248 246 250 255 258 260 262 267 273 276 276 278 279 276 276 277 276 275 275 275 275 272 269 269 268 269 273 275 274 277 280 283 286 288 285 275 269 265 260 259 263 265 262 262 265 266 266 266 261 253 245 240 247 248 237 228 213 191 229 191 183 191 199 198 201 205 208 212 215 221 223 222 223 225 226 229
264 260 259 259 256 253 254 257 260 261 260 256 253 253 255 259 264 267 270 273 275 276 278 280 278 275 273 272 269 267 268 269 270 269 266 264 265 267 268 271 273 275 278 281 283 285 284 274 269 275 276 267 265 265 265 264 262 260 262 262 254 248 245 242 242 238 234 232 222 215 232 196 188 197 205 203 204 209 216 225 228 231 235 235 235 234 233 233
266 263 260 259 256 250 248 251 255 256 256 256 258 260 260 262 265 267 270 273 275 276 279 281 279 275 272 268 265 263 264 265 264 263 262 259 259 265 269 271 275 278 280 284 286 288 285 277 270 261 242 241 253 258 264 264 258 256 257 256 255 251 242 235 233 226 224 229 224 222 237 215 200 202 205 202 205 220 240 257 259 258 259 258 257 255 252 251
273 269 263 260 258 251 247 249 253 255 257 259 261 262 261 261 264 268 272 274 275 276 278 278 275 270 267 264 263 263 263 265 264 261 259 256 256 262 268 271 276 283 287 289 288 286 280 275 272 263 249 247 254 259 263 266 266 266 267 266 264 259 249 244 241 234 233 236 230 224 221 209 202 201 203 208 224 252 269 277 278 277 275 273 270 268 266 265
273 268 262 259 258 254 249 249 252 254 257 259 261 263 264 264 267 272 275 276 276 276 276 275 271 266 263 264 264 263 264 265 265 264 264 262 259 260 265 272 280 286 291 291 287 280 273 269 266 263 257 257 261 262 261 262 264 264 265 265 262 260 258 254 253 253 249 246 245 242 238 234 225 217 224 243 261 273 277 279 279 278 278 278 277 274 274 274
273 269 263 259 257 254 250 249 250 252 255 257 259 262 265 268 271 274 275 275 274 274 273 270 269 266 265 266 266 266 267 267 268 269 268 267 267 267 269 274 281 287 291 292 285 276 270 267 264 262 261 261 263 265 260 257 257 257 257 260 261 262 262 260 260 262 257 251 259 265 264 262 261 256 256 263 269 273 276 277 275 274 273 272 272 274 276 277
272 268 264 261 260 259 256 255 254 254 255 258 262 264 265 268 271 273 273 272 271 271 269 267 266 264 262 262 263 264 267 268 270 272 272 273 276 276 277 278 282 286 290 290 285 276 272 272 270 268 267 264 262 264 265 261 259 259 257 257 259 258 260 262 261 261 259 260 266 272 274 274 276 274 269 267 267 268 271 273 272 270 267 265 266 269 270 271
274 269 266 264 263 263 263 264 264 264 264 265 266 268 268 270 271 271 270 270 268 267 268 267 266 265 262 260 260 262 266 270 273 275 277 281 285 286 287 287 289 290 291 290 287 281 279 278 275 276 278 274 267 264 265 263 263 262 257 254 255 255 255 254 253 253 255 260 267 273 276 277 278 276 273 270 267 265 265 266 267 266 263 261 262 262 262 264
280 274 270 268 266 265 266 268 270 272 273 273 271 271 271 272 271 267 265 265 264 263 265 267 268 270 271 268 264 263 266 270 275 279 283 288 291 294 296 296 296 295 293 293 289 284 283 283 284 287 285 280 277 272 266 264 266 266 260 254 250 249 249 248 249 252 254 260 270 273 273 278 281 276 270 266 264 261 258 256 257 256 253 252 253 254 258 262
294 284 277 272 268 267 267 268 268 271 273 273 272 271 270 268 266 262 260 261 263 262 262 264 266 270 274 275 273 271 270 272 276 281 286 290 293 297 300 300 299 297 296 295 291 287 285 284 287 288 281 279 284 283 275 271 270 266 262 258 253 249 249 249 250 251 252 259 267 269 271 279 283 275 266 263 259 253 247 243 243 243 245 249 254 259 263 267
Height
3099 3099 3098 3098 3097 3096 3096 3095 3095 3094 3093 3092 3092 3091 3090 3090 3089 3089 3089 3088 3088 3088 3088 3088 3088 3088 3088 3088 3088 3088 3089 3089 3090 3090 3090 3091 3091 3092 3092 3093 3095 3096 3097 3098 3099 3100 3100 3101 3102 3104 3105 3107 3108 3109 3110 3111 3110 3111 3111 3111 3112 3114 3115 3117 3119 3119 3118 3117 3116 3116 3116 3117 3117 3118 3120 3121 3122 3124 3126 3128 3130 3132 3133 3133 3134 3135 3136 3137
3098 3097 3097 3096 3096 3096 3095 3095 3094 3093 3093 3092 3091 3090 3090 3089 3089 3088 3088 3088 3088 3088 3088 3088 3088 3087 3087 3087 3087 3087 3088 3088 3089 3089 3089 3090 3091 3091 3091 3092 3094 3095 3095 3096 3097 3098 3099 3100 3101 3103 3105 3106 3108 3108 3109 3109 3109 3110 3111 3111 3112 3114 3115 3117 3119 3119 3118 3117 3116 3115 3115 3116 3116 3117 3118 3119 3121 3123 3125 3127 3129 3131 3132 3132 3133 3134 3135 3136
3096 3096 3096 3095 3095 3095 3094 3094 3093 3093 3092 3091 3091 3090 3089 3089 3088 3088 3087 3087 3087 3087 3087 3087 3087 3087 3086 3086 3087 3087 3087 3087 3088 3088 3089 3089 3090 3090 3091 3092 3093 3093 3094 3095 3096 3097 3098 3099 3101 3102 3104 3106 3106 3107 3108 3108 3109 3110 3110 3110 3112 3114 3115 3117 3118 3118 3117 3116 3116 3115 3115 3115 3116 3117 3118 3119 3120 3122 3124 3126 3129 3130 3131 3132 3133 3134 3135 3136
3094 3094 3094 3094 3094 3094 3094 3093 3093 3092 3091 3091 3090 3090 3089 3088 3088 3087 3087 3087 3087 3087 3087 3087 3086 3086 3086 3086 3086 3086 3086 3087 3087 3087 3088 3088 3089 3089 3090 3091 3092 3092 3093 3094 3095 3096 3098 3099 3100 3102 3103 3105 3105 3106 3107 3108 3109 3109 3109 3110 3112 3113 3114 3116 3118 3118 3117 3116 3116 3115 3115 3115 3116 3117 3118 3119 3120 3122 3124 3127 3129 3130 3131 3132 3133 3134 3134 3136
3093 3093 3093 3093 3093 3093 3093 3093 3092 3092 3091 3091 3090 3089 3089 3088 3088 3087 3087 3087 3087 3087 3086 3086 3086 3086 3086 3086 3086 3086 3086 3087 3087 3087 3087 3088 3088 3089 3090 3091 3091 3092 3092 3093 3095 3096 3097 3099 3100 3102 3103 3104 3105 3106 3107 3108 3108 3108 3109 3110 3112 3113 3113 3115 3117 3117 3117 3116 3115 3115 3115 3116 3116 3117 3118 3120 3122 3123 3125 3127 3128 3129 3130 3131 3132 3133 3134 3135
3092 3092 3092 3092 3092 3092 3092 3092 3092 3091 3091 3090 3090 3089 3089 3088 3088 3087 3087 3086 3086 3086 3086 3086 3086 3086 3086 3086 3086 3086 3086 3087 3087 3086 3087 3087 3087 3088 3089 3090 3091 3091 3092 3093 3094 3095 3097 3098 3100 3101 3103 3104 3105 3106 3107 3107 3107 3108 3109 3110 3111 3112 3112 3115 3116 3116 3116 3116 3115 3115 3116 3117 3117 3118 3119 3121 3122 3124 3125 3126 3127 3128 3129 3130 3132 3133 3134 3135
3091 3091 3091 3092 3092 3092 3092 3092 3091 3091 3090 3090 3089 3089 3089 3088 3088 3087 3087 3086 3086 3086 3086 3086 3086 3086 3086 3086 3086 3086 3086 3087 3087 3087 3087 3087 3087 3088 3089 3090 3090 3091 3092 3093 3094 3095 3097 3099 3100 3101 3102 3103 3104 3105 3106 3107 3107 3108 3109 3110 3111 3112 3112 3113 3114 3115 3115 3115 3115 3114 3115 3117 3118 3119 3119 3120 3122 3123 3124 3124 3126 3127 3128 3129 3131 3132 3133 3134
3091 3091 3091 3091 3091 3091 3091 3091 3091 3090 3090 3090 3089 3089 3089 3088 3088 3087 3087 3086 3086 3086 3086 3086 3086 3086 3086 3086 3086 3086 3087 3087 3087 3087 3087 3087 3087 3087 3088 3089 3090 3091 3092 3093 3094 3096 3098 3099 3100 3101 3102 3103 3104 3105 3106 3106 3107 3108 3109 3110 3110 3111 3111 3112 3112 3113 3114 3114 3115 3114 3115 3117 3118 3118 3119 3120 3121 3121 3123 3123 3124 3125 3127 3128 3130 3131 3132 3133
3090 3090 3091 3091 3091 3091 3091 3090 3090 3090 3090 3089 3089 3089 3089 3088 3088 3088 3087 3087 3086 3086 3086 3086 3086 3086 3086 3086 3087 3087 3087 3087 3087 3087 3087 3087 3087 3088 3088 3089 3090 3091 3092 3093 3094 3097 3098 3099 3100 3100 3101 3102 3103 3105 3105 3106 3107 3108 3108 3109 3109 3110 3110 3111 3111 3112 3113 3113 3114 3114 3114 3116 3117 3117 3118 3119 3120 3121 3122 3122 3123 3125 3126 3128 3129 3130 3131 3132
3090 3090 3090 3090 3090 3090 3090 3090 3090 3090 3089 3089 3089 3089 3089 3088 3088 3088 3087 3087 3087 3086 3086 3086 3086 3086 3086 3087 3087 3088 3088 3088 3088 3088 3088 3088 3088 3088 3089 3089 3090 3091 3093 3094 3096 3097 3098 3098 3099 3100 3101 3102 3103 3104 3105 3106 3107 3107 3108 3108 3108 3109 3110 3110 3111 3112 3112 3112 3113 3113 3114 3115 3116 3116 3117 3118 3119 3120 3121 3122 3123 3124 3125 3127 3128 3129 3130 3132
3090 3090 3090 3090 3090 3090 3090 3089 3089 3089 3089 3089 3089 3089 3088 3088 3088 3088 3088 3087 3087 3087 3086 3086 3086 3086 3087 3087 3088 3088 3089 3089 3089 3088 3088 3089 3089 3089 3089 3090 3091 3092 3093 3095 3096 3097 3098 3098 3099 3100 3101 3102 3102 3103 3105 3105 3106 3107 3107 3107 3108 3108 3109 3110 3111 3111 3112 3112 3112 3113 3114 3114 3115 3115 3116 3117 3118 3119 3120 3121 3122 3123 3124 3126 3127 3128 3130 3131
3090 3090 3090 3090 3090 3089 3089 3089 3089 3089 3089 3089 3089 3089 3088 3088 3088 3088 3088 3087 3087 3087 3087 3087 3087 3087 3087 3088 3089 3089 3089 3089 3089 3089 3089 3089 3089 3089 3090 3090 3091 3092 3094 3095 3097 3097 3098 3098 3099 3100 3100 3101 3102 3103 3104 3105 3106 3106 3106 3107 3107 3107 3108 3109 3110 3111 3111 3112 3112 3113 3113 3113 3114 3115 3116 3116 3117 3118 3119 3120 3120 3121 3123 3124 3126 3127 3129 3131
3090 3090 3090 3089 3089 3089 3089 3089 3089 3089 3089 3089 3089 3089 3088 3088 3088 3088 3088 3088 3087 3087 3087 3087 3087 3087 3088 3089 3089 3089 3089 3089 3090 3090 3091 3090 3090 3090 3091 3092 3092 3093 3095 3096 3097 3097 3098 3098 3099 3100 3100 3101 3102 3103 3104 3104 3105 3106 3106 3106 3107 3107 3108 3109 3110 3110 3111 3111 3112 3112 3112 3112 3113 3114 3114 3115 3115 3117 3117 3118 3119 3120 3122 3123 3124 3126 3128 3129
3090 3090 3089 3089 3089 3089 3089 3088 3088 3088 3088 3089 3089 3088 3088 3088 3088 3088 3088 3088 3087 3087 3087 3087 3087 3088 3089 3089 3089 3089 3089 3090 3091 3091 3091 3091 3091 3092 3092 3093 3094 3095 3096 3097 3097 3097 3098 3098 3099 3100 3101 3102 3102 3103 3103 3104 3105 3105 3106 3106 3107 3107 3108 3108 3109 3110 3111 3111 3111 3112 3110 3110 3112 3113 3113 3114 3114 3115 3116 3117 3118 3119 3121 3122 3123 3125 3126 3128
3091 3090 3090 3089 3089 3088 3088 3088 3088 3088 3088 3088 3088 3088 3088 3088 3088 3088 3088 3088 3087 3087 3087 3087 3088 3088 3089 3089 3089 3089 3090 3090 3091 3091 3092 3092 3092 3093 3093 3094 3095 3095 3096 3097 3097 3098 3098 3099 3100 3101 3101 3102 3102 3102 3103 3104 3104 3105 3106 3106 3107 3107 3108 3108 3109 3110 3111 3111 3111 3111 3109 3109 3111 3111 3112 3113 3113 3114 3115 3116 3117 3118 3120 3121 3122 3123 3125 3127
3091 3091 3090 3089 3089 3088 3088 3088 3087 3087 3087 3088 3088 3088 3088 3088 3088 3088 3088 3087 3087 3087 3087 3087 3087 3088 3089 3089 3089 3090 3090 3090 3091 3091 3092 3092 3093 3093 3094 3094 3095 3096 3096 3097 3098 3098 3099 3099 3100 3101 3101 3102 3102 3102 3103 3104 3104 3105 3106 3106 3107 3107 3108 3108 3109 3109 3110 3110 3110 3110 3109 3109 3109 3110 3111 3112 3112 3113 3114 3115 3115 3117 3118 3119 3121 3122 3124 3125
3091 3091 3090 3090 3089 3088 3088 3087 3087 3087 3087 3087 3087 3087 3087 3087 3087 3087 3087 3087 3087 3087 3087 3087 3087 3088 3089 3089 3089 3090 3090 3090 3090 3091 3091 3092 3093 3093 3094 3094 3095 3096 3096 3097 3098 3098 3099 3099 3100 3100 3101 3101 3101 3102 3102 3103 3104 3105 3106 3106 3106 3107 3107 3108 3108 3109 3109 3109 3109 3108 3107 3108 3108 3108 3109 3111 3111 3112 3113 3114 3114 3115 3116 3117 3119 3120 3122 3123
3092 3091 3090 3090 3089 3089 3088 3088 3087 3087 3086 3086 3086 3087 3087 3086 3086 3086 3087 3087 3087 3087 3087 3087 3088 3088 3089 3089 3089 3090 3090 3090 3090 3091 3091 3092 3093 3094 3094 3095 3095 3096 3096 3097 3098 3098 3098 3099 3099 3099 3100 3101 3101 3101 3102 3103 3104 3105 3105 3106 3106 3106 3107 3107 3107 3108 3108 3107 3107 3107 3106 3106 3107 3107 3107 3109 3110 3111 3112 3113 3113 3113 3114 3115 3117 3118 3120 3121
3092 3091 3091 3090 3090 3089 3088 3088 3087 3087 3086 3086 3086 3086 3086 3085 3085 3085 3086 3086 3086 3087 3087 3087 3088 3088 3089 3089 3090 3090 3090 3090 3091 3091 3091 3092 3093 3093 3094 3094 3095 3096 3096 3097 3097 3098 3098 3098 3098 3099 3100 3100 3101 3101 3101 3102 3103 3104 3104 3105 3105 3106 3106 3106 3106 3106 3106 3106 3106 3105 3104 3104 3106 3105 3106 3107 3109 3110 3111 3112 3111 3111 3112 3113 3115 3116 3118 3119
3092 3091 3091 3090 3090 3089 3089 3088 3087 3087 3086 3086 3086 3085 3085 3085 3085 3085 3085 3085 3085 3086 3087 3087 3088 3088 3089 3089 3090 3090 3091 3091 3091 3091 3091 3092 3093 3093 3094 3094 3095 3095 3096 3096 3096 3097 3097 3097 3098 3099 3100 3100 3100 3100 3101 3102 3102 3103 3104 3104 3104 3105 3105 3105 3106 3105 3105 3105 3104 3104 3103 3103 3104 3104 3104 3106 3107 3109 3110 3110 3110 3110 3110 3111 3113 3115 3116 3118
3092 3092 3091 3091 3090 3089 3089 3088 3087 3087 3086 3086 3086 3085 3085 3084 3084 3084 3083 3083 3084 3085 3086 3087 3087 3088 3089 3089 3090 3090 3091 3091 3091 3091 3091 3092 3092 3093 3093 3094 3094 3095 3095 3096 3096 3096 3096 3097 3097 3098 3099 3099 3100 3100 3100 3101 3101 3102 3103 3103 3104 3104 3104 3104 3105 3104 3104 3104 3103 3102 3102 3101 3102 3103 3103 3104 3106 3107 3108 3109 3109 3109 3109 3110 3111 3113 3115 3117
3092 3092 3091 3091 3090 3089 3089 3088 3088 3087 3086 3086 3086 3085 3085 3084 3084 3083 3083 3082 3083 3084 3085 3086 3087 3088 3089 3089 3090 3090 3091 3091 3091 3091 3091 3092 3092 3092 3093 3093 3093 3094 3094 3095 3095 3095 3095 3096 3097 3098 3098 3099 3099 3099 3100 3100 3101 3101 3102 3102 3103 3103 3103 3103 3104 3104 3103 3103 3102 3102 3101 3100 3100 3101 3102 3104 3105 3106 3107 3108 3108 3109 3109 3109 3110 3111 3113 3115
3093 3092 3091 3091 3090 3090 3089 3088 3088 3087 3086 3086 3086 3086 3085 3085 3084 3084 3083 3082 3083 3084 3085 3086 3087 3088 3089 3089 3089 3090 3090 3090 3091 3091 3091 3091 3092 3092 3092 3092 3093 3093 3094 3094 3094 3095 3095 3095 3096 3097 3097 3098 3098 3098 3099 3099 3100 3100 3101 3101 3102 3102 3102 3102 3102 3102 3102 3102 3102 3101 3100 3100 3100 3100 3101 3102 3104 3104 3105 3106 3107 3108 3108 3108 3109 3110 3112 3113
3092 3092 3091 3091 3091 3090 3089 3089 3088 3087 3087 3087 3086 3086 3086 3085 3085 3084 3084 3083 3083 3084 3084 3086 3087 3088 3088 3089 3089 3089 3090 3090 3090 3091 3091 3091 3092 3092 3092 3092 3092 3093 3093 3094 3094 3094 3094 3095 3095 3096 3096 3097 3097 3097 3098 3098 3099 3099 3100 3100 3101 3101 3101 3101 3101 3101 3101 3101 3101 3101 3099 3099 3099 3100 3101 3101 3102 3103 3104 3105 3106 3107 3107 3107 3107 3108 3110 3111
3092 3092 3091 3091 3091 3090 3090 3089 3088 3088 3087 3087 3087 3087 3086 3086 3086 3085 3084 3084 3084 3084 3085 3086 3087 3088 3088 3088 3089 3089 3089 3090 3090 3090 3091 3091 3091 3091 3092 3092 3092 3093 3093 3093 3094 3093 3094 3094 3095 3095 3095 3095 3096 3096 3097 3097 3098 3098 3099 3100 3100 3100 3101 3100 3100 3100 3100 3100 3100 3100 3099 3098 3098 3099 3100 3100 3101 3102 3103 3103 3104 3105 3105 3105 3106 3106 3107 3108
3092 3091 3091 3091 3091 3090 3090 3089 3089 3088 3088 3087 3087 3087 3087 3087 3086 3086 3085 3085 3085 3085 3086 3087 3087 3088 3088 3088 3089 3089 3089 3089 3090 3090 3090 3091 3091 3091 3091 3092 3092 3093 3093 3093 3093 3093 3093 3093 3094 3094 3094 3094 3095 3095 3096 3096 3097 3097 3098 3099 3099 3099 3099 3099 3099 3099 3099 3099 3099 3099 3099 3097 3097 3098 3098 3099 3099 3100 3101 3102 3103 3103 3103 3103 3104 3104 3104 3105
3092 3091 3091 3090 3090 3090 3090 3089 3089 3088 3088 3087 3087 3087 3087 3087 3087 3086 3086 3086 3086 3086 3087 3087 3087 3088 3088 3088 3088 3089 3089 3089 3089 3089 3090 3090 3090 3091 3091 3091 3092 3092 3092 3092 3092 3092 3092 3093 3093 3093 3093 3093 3094 3094 3095 3095 3096 3096 3097 3098 3098 3098 3099 3099 3099 3099 3098 3098 3098 3098 3098 3097 3096 3096 3097 3097 3097 3098 3098 3099 3100 3101 3101 3100 3100 3099 3100 3101
3091 3091 3090 3090 3090 3089 3089 3089 3089 3088 3088 3087 3087 3087 3087 3087 3087 3087 3086 3087 3086 3086 3087 3087 3087 3088 3088 3088 3088 3088 3089 3089 3089 3089 3090 3090 3090 3091 3091 3091 3092 3092 3092 3092 3091 3090 3091 3091 3092 3092 3092 3093 3093 3093 3094 3094 3095 3095 3096 3097 3097 3097 3098 3098 3098 3098 3098 3098 3098 3098 3098 3097 3095 3095 3096 3096 3095 3096 3095 3096 3097 3097 3097 3096 3095 3095 3095 3097
3091 3090 3090 3090 3089 3089 3089 3088 3088 3088 3088 3087 3087 3087 3087 3087 3087 3087 3087 3087 3087 3086 3086 3087 3087 3088 3088 3088 3088 3088 3088 3089 3089 3089 3089 3090 3090 3090 3091 3091 3091 3091 3091 3091 3090 3089 3089 3090 3090 3091 3091 3092 3092 3092 3093 3093 3094 3094 3095 3096 3096 3096 3096 3097 3097 3097 3097 3097 3097 3097 3097 3097 3095 3094 3095 3094 3093 3093 3093 3094 3094 3094 3094 3093 3092 3092 3093 3094
3090 3090 3090 3089 3089 3088 3088 3088 3088 3088 3087 3087 3087 3087 3087 3087 3087 3087 3087 3087 3087 3087 3087 3087 3087 3088 3088 3088 3088 3088 3088 3089 3089 3089 3089 3090 3090 3090 3090 3090 3090 3090 3090 3089 3089 3088 3088 3088 3089 3089 3090 3091 3091 3091 3092 3093 3093 3094 3094 3095 3095 3095 3095 3095 3096 3096 3097 3097 3096 3096 3096 3096 3095 3093 3093 3093 3092 3092 3092 3092 3092 3092 3092 3091 3091 3090 3091 3092
3090 3090 3089 3089 3088 3088 3088 3087 3087 3087 3087 3087 3086 3086 3087 3087 3087 3087 3087 3087 3086 3087 3087 3087 3087 3087 3087 3087 3087 3087 3088 3088 3089 3089 3089 3089 3089 3089 3089 3089 3089 3089 3088 3088 3088 3087 3087 3087 3087 3087 3089 3090 3090 3091 3091 3092 3092 3093 3093 3094 3094 3094 3094 3095 3095 3095 3096 3096 3095 3094 3095 3095 3095 3092 3092 3092 3091 3090 3091 3090 3090 3090 3090 3089 3089 3089 3089 3089
3090 3089 3089 3088 3088 3087 3087 3087 3087 3086 3087 3086 3086 3086 3086 3086 3086 3086 3086 3086 3086 3086 3086 3086 3087 3087 3087 3087 3087 3087 3087 3087 3088 3088 3088 3088 3088 3088 3088 3088 3089 3088 3088 3087 3087 3087 3086 3086 3085 3086 3087 3088 3089 3090 3090 3091 3091 3092 3092 3093 3094 3094 3094 3095 3095 3095 3096 3094 3093 3093 3094 3094 3093 3091 3091 3091 3090 3090 3089 3089 3088 3088 3088 3087 3087 3087 3087 3087
3089 3088 3088 3087 3087 3087 3086 3086 3086 3086 3086 3086 3086 3086 3086 3086 3086 3085 3086 3086 3086 3086 3086 3086 3086 3086 3086 3086 3087 3086 3087 3087 3087 3087 3087 3087 3087 3087 3087 3087 3087 3087 3087 3087 3087 3086 3086 3085 3085 3085 3085 3086 3087 3088 3088 3089 3089 3090 3091 3092 3092 3094 3096 3096 3096 3096 3095 3092 3092 3093 3093 3092 3090 3090 3090 3090 3089 3089 3088 3088 3087 3087 3087 3086 3086 3086 3086 3086
3088 3088 3087 3087 3086 3086 3086 3085 3085 3085 3085 3085 3085 3085 3085 3085 3085 3085 3085 3085 3085 3085 3085 3086 3086 3086 3086 3086 3086 3086 3086 3086 3086 3086 3086 3086 3086 3086 3086 3086 3086 3086 3086 3086 3086 3086 3085 3085 3084 3084 3084 3085 3086 3086 3086 3087 3088 3088 3089 3090 3090 3091 3092 3093 3093 3093 3091 3091 3091 3092 3092 3090 3089 3089 3089 3088 3088 3088 3087 3087 3086 3086 3086 3086 3085 3085 3085 3086
3087 3087 3086 3086 3086 3085 3085 3085 3085 3085 3085 3085 3084 3085 3085 3084 3084 3084 3084 3084 3085 3085 3085 3085 3085 3085 3085 3085 3086 3086 3086 3086 3085 3085 3085 3085 3085 3085 3084 3084 3084 3084 3085 3085 3085 3085 3085 3084 3083 3084 3084 3084 3084 3085 3085 3086 3086 3086 3087 3088 3088 3088 3088 3089 3089 3089 3089 3090 3091 3091 3089 3088 3088 3088 3088 3088 3087 3087 3087 3086 3086 3085 3085 3085 3084 3084 3084 3085
3086 3086 3085 3085 3084 3084 3084 3084 3084 3084 3084 3084 3084 3084 3084 3084 3083 3083 3083 3083 3083 3084 3084 3084 3084 3084 3084 3084 3085 3085 3085 3085 3085 3085 3084 3084 3084 3084 3083 3083 3083 3083 3083 3083 3083 3083 3083 3082 3083 3083 3083 3083 3083 3083 3084 3084 3084 3084 3085 3085 3085 3086 3087 3087 3088 3088 3089 3090 3089 3088 3087 3087 3087 3087 3087 3087 3087 3087 3087 3086 3085 3085 3084 3084 3083 3083 3084 3084
3085 3085 3084 3084 3083 3083 3084 3083 3083 3083 3083 3083 3083 3083 3083 3083 3082 3082 3082 3082 3083 3083 3083 3083 3083 3083 3083 3083 3083 3084 3084 3084 3083 3084 3084 3084 3083 3083 3083 3082 3082 3082 3082 3082 3082 3082 3082 3081 3081 3082 3082 3082 3082 3082 3082 3082 3083 3083 3083 3083 3083 3084 3085 3085 3086 3088 3090 3090 3087 3085 3085 3085 3085 3085 3085 3086 3086 3086 3086 3085 3085 3084 3083 3083 3082 3082 3082 3083
3084 3083 3083 3083 3082 3083 3083 3083 3083 3082 3082 3082 3082 3082 3082 3082 3081 3081 3082 3082 3082 3082 3082 3082 3082 3082 3082 3082 3082 3082 3082 3082 3082 3082 3083 3083 3082 3082 3082 3082 3081 3081 3081 3081 3081 3081 3081 3080 3080 3080 3081 3081 3081 3081 3081 3081 3081 3081 3081 3081 3082 3082 3082 3083 3084 3086 3088 3089 3087 3084 3084 3084 3083 3084 3084 3084 3085 3085 3084 3084 3084 3083 3083 3083 3082 3081 3081 3082
3083 3082 3082 3081 3081 3081 3081 3081 3081 3081 3081 3081 3081 3081 3081 3081 3080 3081 3081 3081 3081 3081 3081 3081 3082 3081 3081 3081 3081 3081 3081 3081 3081 3081 3081 3082 3081 3081 3081 3080 3080 3080 3080 3080 3080 3080 3080 3079 3079 3079 3079 3079 3079 3079 3079 3079 3080 3080 3080 3080 3080 3080 3081 3081 3081 3082 3083 3086 3087 3084 3083 3082 3081 3082 3083 3083 3083 3083 3083 3083 3083 3083 3082 3082 3082 3082 3082 3082
3081 3081 3080 3080 3080 3080 3080 3080 3080 3080 3080 3080 3080 3080 3080 3080 3080 3080 3080 3080 3080 3080 3080 3080 3080 3080 3080 3080 3080 3080 3080 3080 3080 3080 3080 3081 3080 3080 3080 3079 3079 3080 3080 3080 3080 3079 3079 3079 3078 3078 3078 3078 3078 3078 3078 3078 3078 3078 3078 3078 3078 3079 3079 3079 3080 3080 3080 3083 3085 3084 3082 3080 3079 3080 3080 3081 3081 3080 3081 3082 3082 3082 3082 3082 3082 3082 3083 3083
3079 3079 3079 3079 3079 3079 3079 3078 3078 3078 3078 3078 3078 3079 3079 3079 3079 3079 3079 3079 3079 3079 3079 3079 3079 3079 3079 3078 3078 3078 3078 3078 3079 3079 3079 3079 3079 3079 3078 3078 3078 3078 3079 3079 3079 3078 3078 3078 3077 3077 3077 3077 3077 3076 3076 3077 3076 3077 3077 3077 3077 3077 3078 3078 3078 3078 3078 3079 3081 3081 3079 3077 3077 3078 3078 3079 3079 3078 3079 3080 3080 3081 3081 3081 3081 3082 3082 3082
3077 3077 3077 3077 3078 3077 3077 3077 3077 3076 3077 3077 3077 3077 3077 3077 3077 3078 3078 3078 3078 3078 3078 3078 3077 3077 3077 3077 3077 3077 3077 3077 3077 3078 3078 3077 3077 3077 3077 3077 3077 3077 3077 3077 3077 3077 3077 3076 3076 3075 3075 3075 3075 3075 3075 3075 3075 3075 3075 3075 3076 3076 3076 3077 3076 3076 3077 3077 3077 3078 3077 3076 3076 3077 3077 3077 3076 3077 3077 3078 3078 3079 3079 3080 3080 3080 3081 3081
3075 3075 3075 3075 3076 3076 3075 3075 3075 3075 3075 3075 3075 3076 3076 3076 3076 3076 3076 3076 3076 3076 3076 3076 3076 3076 3075 3075 3075 3075 3075 3075 3075 3075 3076 3076 3075 3075 3075 3075 3075 3076 3076 3076 3075 3075 3075 3075 3074 3074 3073 3073 3073 3073 3073 3073 3073 3073 3073 3073 3074 3074 3074 3074 3074 3074 3074 3074 3075 3076 3075 3074 3074 3076 3076 3075 3075 3075 3075 3075 3076 3077 3077 3078 3078 3078 3079 3079
3073 3073 3073 3073 3073 3074 3073 3073 3073 3073 3073 3073 3074 3074 3074 3074 3074 3074 3074 3074 3074 3074 3074 3074 3074 3074 3073 3073 3073 3073 3073 3073 3073 3073 3074 3074 3074 3074 3073 3073 3074 3074 3074 3074 3074 3074 3074 3074 3073 3073 3073 3072 3072 3072 3071 3071 3072 3071 3071 3071 3071 3072 3072 3072 3072 3072 3072 3071 3072 3073 3071 3071 3072 3073 3074 3074 3074 3073 3073 3073 3074 3074 3074 3075 3076 3076 3077 3077
3071 3071 3071 3071 3071 3071 3071 3071 3071 3071 3071 3071 3072 3072 3072 3072 3071 3071 3072 3072 3071 3071 3071 3071 3071 3071 3071 3071 3071 3071 3071 3071 3072 3071 3072 3072 3072 3072 3072 3072 3072 3072 3072 3072 3072 3072 3072 3072 3071 3071 3071 3071 3071 3071 3070 3070 3070 3070 3069 3070 3070 3070 3070 3070 3070 3070 3069 3069 3069 3069 3068 3069 3070 3071 3071 3072 3072 3071 3071 3071 3072 3072 3072 3073 3073 3073 3074 3074
3069 3069 3069 3069 3069 3069 3069 3069 3069 3069 3069 3069 3069 3069 3069 3069 3069 3069 3070 3069 3069 3069 3069 3069 3069 3069 3069 3069 3069 3069 3068 3069 3070 3070 3070 3071 3071 3070 3070 3070 3070 3070 3070 3070 3070 3070 3070 3069 3069 3069 3068 3068 3068 3069 3069 3068 3068 3068 3068 3068 3068 3068 3068 3069 3068 3067 3067 3067 3066 3065 3067 3068 3068 3069 3069 3070 3070 3070 3070 3069 3070 3070 3070 3070 3070 3071 3071 3071
3067 3067 3067 3067 3067 3066 3066 3066 3066 3067 3067 3067 3067 3067 3066 3067 3067 3067 3067 3067 3066 3066 3066 3066 3066 3067 3067 3067 3067 3067 3067 3067 3067 3067 3068 3068 3068 3069 3068 3068 3068 3068 3068 3068 3068 3068 3067 3067 3066 3066 3065 3065 3066 3066 3066 3066 3065 3065 3065 3065 3065 3066 3066 3066 3065 3065 3066 3065 3062 3063 3066 3067 3067 3068 3068 3067 3067 3068 3067 3067 3067 3068 3068 3068 3068 3068 3068 3069
3065 3065 3065 3065 3065 3064 3064 3064 3064 3064 3064 3064 3064 3064 3064 3064 3065 3065 3064 3064 3064 3064 3064 3064 3064 3064 3064 3064 3065 3065 3065 3065 3065 3065 3065 3065 3066 3066 3066 3066 3066 3066 3066 3066 3066 3066 3065 3064 3063 3063 3062 3063 3063 3063 3063 3063 3063 3063 3063 3062 3063 3063 3063 3063 3062 3062 3063 3061 3059 3061 3063 3063 3064 3066 3066 3065 3065 3065 3064 3064 3065 3065 3065 3065 3065 3065 3066 3066
3062 3062 3062 3062 3062 3062 3062 3062 3062 3062 3062 3062 3062 3062 3062 3062 3062 3062 3062 3062 3062 3062 3062 3062 3062 3062 3062 3062 3063 3063 3063 3063 3063 3063 3062 3063 3063 3063 3064 3064 3064 3064 3064 3064 3064 3064 3063 3061 3061 3060 3059 3059 3060 3060 3060 3060 3060 3059 3059 3059 3060 3060 3059 3059 3059 3059 3059 3058 3056 3058 3059 3058 3060 3061 3062 3062 3062 3062 3062 3062 3062 3062 3062 3062 3063 3063 3063 3063
3060 3060 3059 3059 3059 3059 3059 3059 3059 3059 3059 3060 3059 3059 3059 3060 3060 3060 3059 3059 3059 3059 3059 3059 3059 3059 3060 3060 3061 3061 3061 3061 3061 3060 3060 3060 3061 3061 3061 3061 3061 3061 3061 3061 3061 3061 3060 3058 3058 3058 3056 3054 3056 3058 3058 3057 3056 3055 3055 3056 3056 3056 3056 3055 3055 3055 3055 3054 3054 3055 3053 3053 3056 3058 3058 3058 3058 3058 3059 3059 3059 3059 3059 3060 3060 3060 3060 3060
3058 3058 3057 3057 3057 3057 3057 3057 3057 3057 3057 3057 3057 3057 3057 3058 3058 3058 3058 3057 3057 3057 3057 3057 3057 3057 3058 3058 3058 3058 3058 3058 3058 3058 3058 3058 3058 3058 3058 3058 3058 3057 3057 3057 3057 3057 3057 3055 3054 3055 3052 3049 3052 3055 3054 3054 3053 3049 3048 3051 3053 3052 3051 3051 3051 3051 3051 3051 3051 3051 3049 3048 3052 3054 3053 3053 3054 3054 3055 3056 3056 3056 3056 3057 3057 3057 3057 3057
3056 3056 3056 3055 3055 3055 3055 3055 3055 3055 3055 3055 3055 3055 3055 3056 3056 3056 3056 3055 3054 3055 3055 3055 3055 3055 3055 3055 3055 3056 3055 3055 3056 3056 3056 3056 3055 3055 3055 3055 3054 3054 3053 3053 3053 3052 3053 3052 3051 3053 3049 3045 3048 3050 3050 3051 3049 3041 3040 3046 3048 3047 3047 3047 3047 3048 3048 3049 3048 3046 3045 3046 3048 3049 3049 3050 3050 3051 3052 3052 3052 3053 3053 3053 3054 3054 3054 3054